Location: Cudham
(51.3000°N, 0.0667°E)
Time: 00:57:12
(UTC+00:00)

CENTAUR R/B - Pass Details

Date: 19 May 2025
Orbit: 644 x 1537 km, 63.4° (Epoch: 18 June)

Event Time Altitude Azimuth Distance (km) Brightness Sun altitude
Rises 23:11:34 0° 313° (NW) 4,035 6.6 -18.0°
Reaches altitude 10° 23:14:07 10° 316° (NW) 3,186 6.0 -18.1°
Maximum altitude 23:22:05 75° 42° (NE) 1,443 3.4 -18.3°
Drops below altitude 10° 23:31:22 10° 128° (SE) 3,676 5.1 -18.5°
Enters shadow 23:31:29 10° 128° (SE) 3,718 5.1 -18.5°
